Location: Norton
(51.3000°N, 0.8167°E)
Time: 12:36:51
(UTC+00:00)

Cosmos 2219 Rocket - Pass Details

Date: 03 March 2021
Orbit: 827 x 848 km, 71.0° (Epoch: 11 April)

Event Time Altitude Azimuth Distance (km) Brightness Sun altitude
Rises 21:08:29 0° 227° (SW) 3,360 5.5 -31.8°
Reaches altitude 10° 21:10:59 10° 233° (SW) 2,432 4.8 -32.1°
Maximum altitude 21:16:23 49° 308° (NW) 1,072 3.0 -32.8°
Drops below altitude 10° 21:21:50 10° 23° (NNE) 2,458 4.7 -33.5°
Sets 21:24:23 0° 29° (NNE) 3,399 5.5 -33.8°
